Location: Il Ritiro
(43.4167°N, 13.1333°E)
Time: 00:18:24
(UTC+00:00)

Cosmos 1400 Rocket - Pass Details

Date: 05 July 2020
Orbit: 521 x 569 km, 81.2° (Epoch: 11 August)

Event Time Altitude Azimuth Distance (km) Brightness Sun altitude
Rises 19:33:47 0° 0° (N) 2,722 7.0 -7.1°
Reaches altitude 10° 19:36:14 10° 13° (NNE) 1,814 5.9 -7.4°
Maximum altitude 19:39:39 27° 72° (ENE) 1,063 4.0 -7.9°
Enters shadow 19:42:50 11° 130° (SE) 1,722 4.7 -8.3°
